Simultaneous Nadir Overpasses (SNOs) Predictions

Prediction of SNOs between GOES-16 and NOAA-19 Satellite Orbit:

Table of predicted SNOs for the next 14.0 days since TLE Epoch: 10/10/2020
Index Date Time (GOES-16) GOES-16 Lat,Lon NOAA-19 Lat,Lon Distance(km) Time Diff (sec)
1 10/10/2020 10:57:53 -0.03, -75.26 -0.88, -71.65 411.43 80
2 10/11/2020 23:30:41 0.03, -75.25 -0.95, -79.50 484.65 80
3 10/12/2020 23:18:59 0.03, -75.27 -0.31, -76.64 156.98 80
4 10/13/2020 23:09:57 0.03, -75.28 0.38, -73.79 170.90 80
5 10/14/2020 22:58:15 0.03, -75.30 1.02, -70.92 498.92 80
6 10/16/2020 11:30:45 -0.03, -75.34 0.74, -78.70 383.56 80
7 10/17/2020 11:19:03 -0.03, -75.36 0.10, -75.84 55.30 80
8 10/18/2020 11:04:41 -0.03, -75.38 -0.60, -72.99 273.10 80
9 10/20/2020 23:25:47 0.02, -75.40 -0.60, -77.97 293.43 80
10 10/21/2020 23:16:46 0.02, -75.43 0.10, -75.12 35.36 80
11 10/22/2020 23:05:03 0.01, -75.45 0.74, -72.26 364.27 80
